User: anonymous   Login
Location: Unspecified
(0.0000°N, 0.0000°E)
Time: 14:01:33
(UTC+02:00)
Language:

Cosmos 1733 Rocket - Orbit

View from above orbital plane
View from above orbital plane
View from above satellite
View from above satellite

Ground track
Ground track

The orbit data is extracted from the following two-line orbital elements,

1 16612U 86018B   16150.94844353 +.00000128 +00000-0 +12468-4 0  9998
2 16612 082.5159 295.9674 0017187 342.8212 137.4420 14.84082181513519
Epoch (UTC): 29 May 2016 22:45:45
Eccentricity: 0.0017187
inclination: 82.5159°
perigee height: 604 km
apogee height: 628 km
right ascension of ascending node: 295.9674°
argument of perigee: 342.8212°
revolutions per day: 14.84082181
mean anomaly at epoch: 137.4420°
orbit number at epoch: 51351

The dashed part of the orbit path shows where the satellite is in the earth's shadow,  

DLR